Weather History for KRTS - October, 2012

Change the Weather History Date:

Friday, October 12, 2012

  Actual Average (KRNO) Record (KRNO)
Temperature  
Mean Temperature 57 °F 56 °F  
Max Temperature 68 °F 71 °F 86 °F (1940)
Min Temperature 44 °F 40 °F 19 °F (1969)
Degree Days  
Heating Degree Days 8 10  
Month to date heating degree days 94  
Since 1 July heating degree days 184  
Cooling Degree Days 0 0  
Month to date cooling degree days 4  
Year to date cooling degree days 838  
Growing Degree Days 7 (Base 50)    
Moisture  
Dew Point 39 °F    
Average Humidity 58    
Maximum Humidity 93    
Minimum Humidity 26    
Precipitation  
Precipitation 0.00 in 0.01 in 0.12 in (1987)
Month to date precipitation 0.19  
Year to date precipitation 5.23  
Snow  
Snow - 0.00 in 1.10 in (1928)
Month to date snowfall 0.1  
Since 1 July snowfall 0.2  
Since 1 September snowfall 0.2  
Snow Depth -    
Sea Level Pressure  
Sea Level Pressure 30.05 in    
Wind  
Wind Speed 6 mph ()    
Max Wind Speed 24 mph    
Max Gust Speed 31 mph    
Visibility 9.9 miles    
Events Rain    
T = Trace of Precipitation, MM = Missing Value Source: Averaged Metar Reports

Daily Weather History Graph

Daily Weather History Graph

Search for Another Location

Airport or City:

Trip Planner

Search our weather history database for the weather conditions in past years. The results will help you decide how hot, cold, wet, or windy it might be!

Date:

Astronomy

Oct. 12, 2012 Rise Set
Actual Time 7:07 AM PDT 6:23 PM PDT
Civil Twilight 6:40 AM PDT 6:50 PM PDT
Nautical Twilight 6:08 AM PDT 7:22 PM PDT
Astronomical Twilight 5:37 AM PDT 7:53 PM PDT
Moon 3:56 AM PDT (10/12) 4:36 PM PDT (10/12)
Length of Visible Light 12h 10m
Length of Day
11h 16m
Waning Crescent, 10% of the Moon is Illuminated
Oct 12
Waning Crescent
Oct 15
New
Oct 21
First Quarter
Oct 29
Full
Nov 6
Last Quarter

Hourly Weather History & Observations

Time (PDT) Temp. Windchill Dew Point Humidity Pressure Visibility Wind Dir Wind Speed Gust Speed Precip Events Conditions
12:55 AM 51.8 °F - 41.0 °F 67% 29.96 in 10.0 mi Calm Calm - N/A   Overcast
1:15 AM 50.0 °F - 39.2 °F 66% 29.96 in 10.0 mi Calm Calm - N/A   Overcast
1:35 AM 50.0 °F - 39.2 °F 66% 29.95 in 10.0 mi West 5.8 mph - N/A   Overcast
1:55 AM 50.0 °F - 39.2 °F 66% 29.95 in 10.0 mi WNW 3.5 mph - N/A   Overcast
2:15 AM 51.8 °F - 39.2 °F 62% 29.95 in 10.0 mi NW 3.5 mph - N/A   Overcast
2:35 AM 51.8 °F - 41.0 °F 67% 29.95 in 10.0 mi SSE 5.8 mph - N/A   Overcast
2:55 AM 51.8 °F - 41.0 °F 67% 29.95 in 10.0 mi ESE 5.8 mph - N/A   Overcast
3:15 AM 50.0 °F - 39.2 °F 66% 29.96 in 10.0 mi East 5.8 mph - N/A   Overcast
3:35 AM 51.8 °F - 41.0 °F 67% 29.96 in 10.0 mi East 4.6 mph - N/A   Overcast
3:55 AM 51.8 °F - 41.0 °F 67% 29.97 in 10.0 mi ESE 3.5 mph - N/A   Overcast
4:15 AM 51.8 °F - 41.0 °F 67% 29.97 in 10.0 mi Calm Calm - N/A   Overcast
4:35 AM 51.8 °F - 42.8 °F 71% 29.98 in 10.0 mi Calm Calm - N/A Rain Light Rain
4:55 AM 50.0 °F - 44.6 °F 82% 29.98 in 5.0 mi Calm Calm - N/A Rain Light Rain
5:15 AM 50.0 °F - 46.4 °F 87% 29.99 in 9.0 mi Calm Calm - N/A Rain Light Rain
5:35 AM 50.0 °F - 46.4 °F 87% 29.98 in 10.0 mi Calm Calm - N/A   Overcast
5:55 AM 50.0 °F - 46.4 °F 87% 29.99 in 10.0 mi Calm Calm - N/A   Overcast
6:15 AM 50.0 °F - 46.4 °F 87% 29.99 in 10.0 mi East 5.8 mph - N/A   Overcast
6:35 AM 50.0 °F - 46.4 °F 87% 30.00 in 10.0 mi ESE 5.8 mph - N/A   Overcast
6:55 AM 50.0 °F - 46.4 °F 87% 30.00 in 10.0 mi Calm Calm - N/A   Overcast
7:15 AM 50.0 °F - 46.4 °F 87% 30.00 in 10.0 mi Calm Calm - N/A   Overcast
7:55 AM 46.4 °F - 44.6 °F 93% 30.01 in 10.0 mi Calm Calm - N/A   Scattered Clouds
8:15 AM 46.4 °F 44.3 °F 44.6 °F 93% 30.02 in 10.0 mi North 4.6 mph - N/A   Mostly Cloudy
8:35 AM 48.2 °F - 44.6 °F 87% 30.02 in 10.0 mi Calm Calm - N/A   Mostly Cloudy
8:55 AM 50.0 °F - 44.6 °F 82% 30.03 in 10.0 mi South 3.5 mph - N/A   Partly Cloudy
9:15 AM 53.6 °F - 44.6 °F 72% 30.03 in 10.0 mi Calm Calm - N/A   Scattered Clouds
9:35 AM 55.4 °F - 44.6 °F 67% 30.03 in 10.0 mi West 8.1 mph - N/A   Partly Cloudy
9:55 AM 55.4 °F - 42.8 °F 63% 30.03 in 10.0 mi West 11.5 mph - N/A   Clear
10:15 AM 59.0 °F - 42.8 °F 55% 30.03 in 10.0 mi WNW 13.8 mph - N/A   Clear
10:35 AM 59.0 °F - 41.0 °F 51% 30.03 in 10.0 mi West 12.7 mph - N/A   Clear
10:55 AM 60.8 °F - 41.0 °F 48% 30.03 in 10.0 mi West 13.8 mph 19.6 mph N/A   Clear
11:35 AM 62.6 °F - 39.2 °F 42% 30.03 in 10.0 mi West 15.0 mph 18.4 mph N/A   Clear
12:35 PM 66.2 °F - 35.6 °F 32% 30.03 in 10.0 mi NW 4.6 mph 18.4 mph N/A   Clear
1:15 PM 66.2 °F - 37.4 °F 35% 30.03 in 10.0 mi WNW 15.0 mph - N/A   Clear
1:55 PM 68.0 °F - 32.0 °F 26% 30.03 in 10.0 mi NW 12.7 mph 17.3 mph N/A   Clear
2:15 PM 68.0 °F - 35.6 °F 30% 30.02 in 10.0 mi NW 18.4 mph 21.9 mph N/A   Clear
2:35 PM 68.0 °F - 37.4 °F 33% 30.03 in 10.0 mi NW 13.8 mph 18.4 mph N/A   Clear
2:55 PM 68.0 °F - 35.6 °F 30% 30.03 in 10.0 mi NW 13.8 mph 17.3 mph N/A   Clear
3:15 PM 68.0 °F - 35.6 °F 30% 30.03 in 10.0 mi WNW 16.1 mph - N/A   Clear
3:35 PM 68.0 °F - 35.6 °F 30% 30.04 in 10.0 mi NW 15.0 mph 23.0 mph N/A   Clear
4:15 PM 68.0 °F - 33.8 °F 28% 30.05 in 10.0 mi WNW 12.7 mph 21.9 mph N/A   Clear
4:55 PM 66.2 °F - 33.8 °F 30% 30.05 in 10.0 mi NW 18.4 mph 26.5 mph N/A   Clear
5:15 PM 64.4 °F - 33.8 °F 32% 30.06 in 10.0 mi West 20.7 mph 25.3 mph N/A   Clear
5:35 PM 62.6 °F - 32.0 °F 32% 30.07 in 10.0 mi West 24.2 mph 31.1 mph N/A   Clear
6:15 PM 57.2 °F - 32.0 °F 38% 30.10 in 10.0 mi West 18.4 mph 23.0 mph N/A   Clear
6:35 PM 55.4 °F - 32.0 °F 41% 30.11 in 10.0 mi West 16.1 mph 20.7 mph N/A   Clear
6:55 PM 55.4 °F - 32.0 °F 41% 30.12 in 10.0 mi West 17.3 mph - N/A   Clear
7:15 PM 55.4 °F - 32.0 °F 41% 30.13 in 10.0 mi WNW 12.7 mph 20.7 mph N/A   Clear
7:35 PM 53.6 °F - 33.8 °F 47% 30.14 in 10.0 mi WNW 9.2 mph - N/A   Clear
7:55 PM 53.6 °F - 32.0 °F 44% 30.15 in 10.0 mi WNW 11.5 mph 19.6 mph N/A   Clear
8:15 PM 53.6 °F - 32.0 °F 44% 30.15 in 10.0 mi West 12.7 mph 18.4 mph N/A   Clear
8:35 PM 51.8 °F - 32.0 °F 47% 30.17 in 10.0 mi WNW 5.8 mph - N/A   Clear
9:55 PM 50.0 °F - 32.0 °F 50% 30.20 in 10.0 mi South 5.8 mph - N/A   Clear
10:15 PM 50.0 °F - 32.0 °F 50% 30.21 in 10.0 mi NE 3.5 mph - N/A   Clear
10:35 PM 48.2 °F - 32.0 °F 54% 30.22 in 10.0 mi Calm Calm - N/A   Clear
10:55 PM 48.2 °F - 32.0 °F 54% 30.23 in 10.0 mi West 3.5 mph - N/A   Clear
11:15 PM 46.4 °F 41.5 °F 33.8 °F 62% 30.22 in 10.0 mi West 10.4 mph - N/A   Clear
11:35 PM 44.6 °F 40.2 °F 33.8 °F 66% 30.23 in 10.0 mi West 8.1 mph - N/A   Clear